• In Uzbekistan
  • List of Countries
  • For 7 days
  • Water Temperature
  • Satellite Maps
  • Weather Map
  • Weather Widgets
  • user-avatar
    Login

    Hourly Weather Balapur

    Today, 19 October, Thursday

    Time Temperature Precipitation Wind Pressure Humidity
    00:00 +25°C° 0 mm 1 mps 732 mmHg 45%
    01:00 +25°C° 0 mm 1 mps 732 mmHg 46%
    02:00 +25°C° 0 mm 1 mps 732 mmHg 46%
    03:00 +24°C° 0 mm 1 mps 732 mmHg 46%
    04:00 +24°C° 0 mm 1 mps 732 mmHg 47%
    05:00 +24°C° 0 mm 1 mps 732 mmHg 51%
    06:00 +25°C° 0 mm 1 mps 732 mmHg 49%
    07:00 +26°C° 0 mm 1 mps 733 mmHg 47%
    08:00 +28°C° 0 mm 2 mps 733 mmHg 45%
    09:00 +30°C° 0 mm 2 mps 733 mmHg 41%
    10:00 +32°C° 0 mm 2 mps 733 mmHg 37%
    11:00 +34°C° 0 mm 3 mps 733 mmHg 33%
    12:00 +35°C° 0 mm 3 mps 732 mmHg 31%
    13:00 +35°C° 0 mm 3 mps 731 mmHg 30%
    14:00 +36°C° 0 mm 4 mps 731 mmHg 28%
    15:00 +34°C° 0 mm 3 mps 731 mmHg 33%
    16:00 +33°C° 0 mm 3 mps 731 mmHg 39%
    17:00 +30°C° 0 mm 3 mps 731 mmHg 44%
    18:00 +29°C° 0 mm 3 mps 731 mmHg 46%
    19:00 +28°C° 0 mm 2 mps 731 mmHg 48%
    20:00 +27°C° 0 mm 2 mps 732 mmHg 50%
    21:00 +27°C° 0 mm 2 mps 732 mmHg 51%
    22:00 +26°C° 0 mm 1 mps 732 mmHg 52%
    23:00 +26°C° 0 mm 1 mps 732 mmHg 53%

    Tomorrow, 20 October, Friday

    Time Temperature Precipitation Wind Pressure Humidity
    00:00 +26°C° 0 mm 1 mps 732 mmHg 55%
    01:00 +25°C° 0 mm 1 mps 731 mmHg 56%
    02:00 +25°C° 0 mm 1 mps 731 mmHg 57%
    03:00 +25°C° 0 mm 1 mps 731 mmHg 57%
    04:00 +24°C° 0 mm 1 mps 731 mmHg 58%
    05:00 +24°C° 0 mm 1 mps 731 mmHg 58%
    06:00 +25°C° 0 mm 1 mps 732 mmHg 56%
    07:00 +27°C° 0 mm 1 mps 732 mmHg 55%
    08:00 +28°C° 0 mm 2 mps 733 mmHg 53%
    09:00 +29°C° 0 mm 2 mps 733 mmHg 49%
    10:00 +31°C° 0 mm 2 mps 733 mmHg 46%
    11:00 +34°C° 0 mm 3 mps 733 mmHg 42%
    12:00 +34°C° 0 mm 3 mps 732 mmHg 41%
    13:00 +35°C° 0 mm 3 mps 732 mmHg 41%
    14:00 +35°C° 0 mm 3 mps 731 mmHg 40%
    15:00 +34°C° 0 mm 3 mps 731 mmHg 44%
    16:00 +32°C° 0 mm 2 mps 731 mmHg 48%
    17:00 +31°C° 0 mm 2 mps 731 mmHg 53%
    18:00 +30°C° 0 mm 2 mps 731 mmHg 54%
    19:00 +29°C° 0 mm 1 mps 732 mmHg 55%
    20:00 +29°C° 0 mm 1 mps 733 mmHg 56%
    21:00 +28°C° 0 mm 1 mps 732 mmHg 56%
    22:00 +28°C° 0 mm 1 mps 732 mmHg 56%
    23:00 +28°C° 0 mm 1 mps 732 mmHg 56%

    Day after tomorrow, 21 October, Saturday

    Time Temperature Precipitation Wind Pressure Humidity
    00:00 +28°C° 0 mm 1 mps 732 mmHg 57%
    01:00 +28°C° 0 mm 2 mps 732 mmHg 57%
    02:00 +27°C° 0 mm 2 mps 732 mmHg 58%
    03:00 +27°C° 0 mm 2 mps 732 mmHg 59%
    04:00 +27°C° 0 mm 2 mps 732 mmHg 60%
    05:00 +27°C° 0 mm 2 mps 732 mmHg 61%
    06:00 +28°C° 0 mm 2 mps 732 mmHg 61%
    07:00 +28°C° 0 mm 3 mps 733 mmHg 62%
    08:00 +29°C° 0 mm 3 mps 734 mmHg 62%
    09:00 +30°C° 0 mm 3 mps 733 mmHg 59%
    10:00 +33°C° 0 mm 4 mps 733 mmHg 56%
    11:00 +35°C° 0 mm 4 mps 733 mmHg 52%
    12:00 +35°C° 0 mm 4 mps 732 mmHg 51%
    13:00 +35°C° 0 mm 4 mps 732 mmHg 50%
    14:00 +36°C° 0 mm 4 mps 731 mmHg 49%
    15:00 +35°C° 0.1 mm 4 mps 731 mmHg 52%
    16:00 +34°C° 0.1 mm 3 mps 731 mmHg 56%
    17:00 +33°C° 0.1 mm 3 mps 731 mmHg 60%
    18:00 +31°C° 0.3 mm 2 mps 732 mmHg 62%
    19:00 +31°C° 0.3 mm 2 mps 732 mmHg 64%
    20:00 +30°C° 0.3 mm 1 mps 733 mmHg 66%
    21:00 +30°C° 0 mm 1 mps 733 mmHg 66%
    22:00 +30°C° 0 mm 1 mps 733 mmHg 66%
    23:00 +30°C° 0 mm 1 mps 733 mmHg 65%

    22 October, Sunday

    Time Temperature Precipitation Wind Pressure Humidity
    00:00 +29°C° 0 mm 1 mps 733 mmHg 66%
    01:00 +29°C° 0 mm 1 mps 732 mmHg 66%
    02:00 +29°C° 0 mm 1 mps 732 mmHg 66%
    03:00 +28°C° 0 mm 1 mps 732 mmHg 66%
    04:00 +27°C° 0 mm 1 mps 732 mmHg 66%
    05:00 +27°C° 0 mm 2 mps 732 mmHg 67%
    06:00 +28°C° 0 mm 2 mps 733 mmHg 63%
    07:00 +29°C° 0 mm 2 mps 734 mmHg 60%
    08:00 +30°C° 0 mm 3 mps 734 mmHg 57%
    09:00 +31°C° 0 mm 3 mps 734 mmHg 52%
    10:00 +34°C° 0 mm 3 mps 734 mmHg 46%
    11:00 +35°C° 0 mm 4 mps 734 mmHg 41%
    12:00 +36°C° 0 mm 4 mps 733 mmHg 39%
    13:00 +36°C° 0 mm 4 mps 732 mmHg 37%
    14:00 +37°C° 0 mm 4 mps 732 mmHg 34%
    15:00 +36°C° 0 mm 3 mps 732 mmHg 38%
    16:00 +35°C° 0 mm 3 mps 732 mmHg 42%
    17:00 +33°C° 0 mm 3 mps 732 mmHg 45%
    18:00 +31°C° 0 mm 2 mps 732 mmHg 47%
    19:00 +30°C° 0 mm 2 mps 733 mmHg 48%
    20:00 +29°C° 0 mm 1 mps 734 mmHg 49%
    21:00 +29°C° 0 mm 1 mps 734 mmHg 51%
    22:00 +28°C° 0 mm 1 mps 734 mmHg 52%
    23:00 +26°C° 0 mm 0 mps 734 mmHg 53%

    23 October, Monday

    Time Temperature Precipitation Wind Pressure Humidity
    00:00 +28°C° 0 mm 1 mps 733 mmHg 53%
    01:00 +27°C° 0 mm 1 mps 733 mmHg 53%
    02:00 +27°C° 0 mm 1 mps 733 mmHg 54%
    03:00 +27°C° 0 mm 1 mps 733 mmHg 55%
    04:00 +26°C° 0 mm 1 mps 733 mmHg 55%
    05:00 +26°C° 0 mm 2 mps 733 mmHg 56%
    06:00 +27°C° 0 mm 2 mps 734 mmHg 54%
    07:00 +28°C° 0 mm 2 mps 735 mmHg 51%
    08:00 +29°C° 0 mm 3 mps 735 mmHg 49%
    09:00 +31°C° 0 mm 3 mps 735 mmHg 44%
    10:00 +34°C° 0 mm 3 mps 735 mmHg 38%
    11:00 +35°C° 0 mm 4 mps 735 mmHg 33%
    12:00 +36°C° 0 mm 4 mps 734 mmHg 31%
    13:00 +36°C° 0 mm 4 mps 734 mmHg 29%
    14:00 +37°C° 0 mm 4 mps 733 mmHg 27%
    15:00 +36°C° 0 mm 3 mps 733 mmHg 31%
    16:00 +34°C° 0 mm 3 mps 733 mmHg 35%
    17:00 +32°C° 0 mm 2 mps 733 mmHg 39%
    18:00 +31°C° 0 mm 2 mps 734 mmHg 41%
    19:00 +30°C° 0 mm 2 mps 735 mmHg 42%
    20:00 +28°C° 0 mm 1 mps 735 mmHg 43%
    21:00 +28°C° 0 mm 1 mps 735 mmHg 44%
    22:00 +28°C° 0 mm 1 mps 735 mmHg 45%
    23:00 +27°C° 0 mm 1 mps 735 mmHg 45%

    24 October, Tuesday

    Time Temperature Precipitation Wind Pressure Humidity
    00:00 +27°C° 0 mm 1 mps 735 mmHg 46%
    01:00 +26°C° 0 mm 1 mps 735 mmHg 47%
    02:00 +26°C° 0 mm 1 mps 734 mmHg 47%
    03:00 +26°C° 0 mm 1 mps 735 mmHg 48%
    04:00 +25°C° 0 mm 1 mps 735 mmHg 49%
    05:00 +25°C° 0 mm 1 mps 735 mmHg 50%
    06:00 +26°C° 0 mm 1 mps 736 mmHg 47%
    07:00 +28°C° 0 mm 1 mps 736 mmHg 45%
    08:00 +29°C° 0 mm 2 mps 737 mmHg 43%
    09:00 +31°C° 0 mm 2 mps 737 mmHg 38%
    10:00 +34°C° 0 mm 2 mps 737 mmHg 34%
    11:00 +35°C° 0 mm 3 mps 737 mmHg 30%
    12:00 +36°C° 0 mm 3 mps 736 mmHg 28%
    13:00 +37°C° 0 mm 3 mps 735 mmHg 25%
    14:00 +37°C° 0 mm 3 mps 734 mmHg 23%
    15:00 +36°C° 0 mm 3 mps 734 mmHg 27%
    16:00 +34°C° 0 mm 2 mps 734 mmHg 32%
    17:00 +32°C° 0 mm 2 mps 735 mmHg 36%
    18:00 +31°C° 0 mm 2 mps 735 mmHg 38%
    19:00 +30°C° 0 mm 2 mps 735 mmHg 39%
    20:00 +28°C° 0 mm 2 mps 736 mmHg 41%
    21:00 +28°C° 0 mm 2 mps 736 mmHg 41%
    22:00 +27°C° 0 mm 1 mps 736 mmHg 42%
    23:00 +27°C° 0 mm 1 mps 736 mmHg 43%
    Show more